Weather observations for the past three days for
Columbus, Ohio State University Airport
Imperial (Metric)
Date Time (edt) Wind (mph) Vis. (mi.) Weather Sky Cond. Temperature (ºF) Relative Humidity Wind Chill (°F) Heat Index (°F) Pressure Precipitation (in)
Air Dwpt 6 hour altimeter (in) sea level (mb) 1 hr 3 hr 6 hr
Max. Min.
03 09:53 W 8 10.00 Fair CLR 84.9 72 65% 91 30.03 1016.1
03 08:53 SW 7 10.00 Fair CLR 80.1 71.1 74% 84 30.05 1016.5
03 07:53 W 5 10.00 Fair CLR 77 71.1 81 75 82% 79 30.04 1016.3
03 06:53 W 6 9.00 Fair CLR 75.9 70 82% 77 30.02 1015.7
03 05:53 W 5 10.00 Fair CLR 75.9 70 82% 77 30.01 1015.4
03 04:53 W 5 10.00 Fair CLR 77 70 79% 79 30.01 1015.3
03 03:53 W 6 10.00 Fair CLR 79 70 74% 82 30.01 1015.1
03 02:53 W 5 10.00 Fair CLR 78.1 70 76% 80 30.02 1015.4
03 01:53 SW 7 10.00 Fair CLR 81 71.1 88 81 72% 85 30.02 1015.5
03 00:53 SW 8 10.00 Fair CLR 82 71.1 69% 86 30 1014.9
02 23:53 SW 8 10.00 Fair CLR 82 71.1 69% 86 30 1014.7
02 22:53 SW 7 10.00 Fair CLR 82.9 71.1 67% 88 30.01 1015.4
02 21:53 SW 7 10.00 Fair CLR 84 71.1 65% 89 30.02 1015.4
02 20:53 SW 7 10.00 Fair CLR 86 71.1 61% 92 30 1015.1
02 19:53 SW 7 10.00 Fair CLR 88 70 93.9 88 55% 93 30 1014.8
02 18:53 SW 14 10.00 Fair CLR 90 69.1 50% 95 30 1014.7
02 17:53 SW 12 10.00 Partly Cloudy SCT060 91.9 69.1 47% 97 30 1014.9
02 16:53 SW 14 G 24 10.00 A Few Clouds FEW060 91 69.1 49% 96 30 1015.0
02 15:53 S 13 G 23 10.00 A Few Clouds FEW060 93.9 68 43% 98 30.02 1015.5
02 14:53 W 8 10.00 A Few Clouds FEW055 93 71.1 49% 100 30.04 1016.1
02 13:53 W 9 10.00 A Few Clouds FEW075 91.9 70 91.9 77 49% 98 30.06 1016.8
02 12:53 W 10 10.00 Fair CLR 91 70 50% 97 30.07 1017.1
02 11:53 SW 8 10.00 A Few Clouds FEW075 89.1 72 57% 96 30.08 1017.4
02 10:53 SW 6 10.00 A Few Clouds FEW085 86 71.1 61% 92 30.08 1017.6
02 09:53 SW 7 10.00 A Few Clouds FEW080 FEW100 82.9 71.1 67% 88 30.08 1017.6
02 08:53 SW 6 10.00 Mostly Cloudy BKN075 80.1 70 71% 83 30.07 1017.4
02 07:53 S 3 10.00 Fair CLR 77 70 79 73 79% 79 30.07 1017.2
02 05:53 S 6 10.00 Fair CLR 75 69.1 82% 75 30.06 1016.9
02 04:53 S 3 10.00 Fair CLR 75.9 70 82% 77 30.06 1016.8
02 03:53 Calm 10.00 Fair CLR 77 70 79% 79 30.04 1016.4
02 02:53 SW 3 10.00 Fair CLR 77 70 79% 79 30.04 1016.3
02 01:53 SW 5 10.00 Fair CLR 78.1 70 87.1 78.1 76% 80 30.04 1016.2
02 00:53 SW 6 10.00 Fair CLR 80.1 70 71% 83 30.03 1016.0
01 23:53 SW 9 G 20 10.00 Fair CLR 82 70 67% 86 30.02 1015.8
01 22:53 SW 10 10.00 Fair CLR 82.9 71.1 67% 88 30.03 1015.9
01 21:53 SW 7 10.00 Fair CLR 82.9 71.1 67% 88 30.03 1015.9
01 20:53 SW 5 10.00 Fair CLR 84.9 71.1 63% 90 30.02 1015.6
01 19:53 SW 6 10.00 Fair CLR 87.1 71.1 91.9 87.1 59% 93 30.03 1015.8
01 18:53 SW 8 10.00 Fair CLR 89.1 71.1 55% 95 30.04 1016.1
01 17:53 SW 9 10.00 Partly Cloudy SCT090 90 72 56% 97 30.04 1016.3
01 16:53 SW 12 G 21 10.00 Partly Cloudy SCT050 91 71.1 52% 98 30.04 1016.3
01 15:53 SW 13 G 24 10.00 Fair CLR 91.9 69.1 47% 97 30.03 1016.0
01 14:53 S 14 G 22 10.00 Mostly Cloudy BKN110 91.9 71.1 51% 99 30.04 1016.4
01 13:53 S 10 10.00 A Few Clouds FEW110 88 72 88 75.9 59% 95 30.06 1016.9
01 12:53 S 5 10.00 Partly Cloudy SCT100 84.9 71.1 63% 90 30.09 1018.0
01 11:53 E 6 10.00 Partly Cloudy SCT070 82 72 72% 87 30.1 1018.3
01 10:53 W 7 10.00 Overcast OVC075 81 71.1 72% 85 30.09 1018.0
01 09:53 SW 13 10.00 Fair CLR 82 71.1 69% 86 30.07 1017.6
01 08:53 SW 9 10.00 Fair CLR 79 70 74% 82 30.08 1017.9
01 07:53 SW 7 10.00 Mostly Cloudy BKN100 75.9 70 78.1 75 82% 77 30.08 1017.6
01 06:53 SW 6 10.00 Partly Cloudy SCT110 75 70 84% 75 30.06 1017.1
01 05:53 SW 6 10.00 Partly Cloudy SCT110 75.9 70 82% 77 30.05 1016.8
01 04:53 SW 7 10.00 Mostly Cloudy BKN120 77 70 79% 79 30.05 1016.6
01 03:53 SW 7 10.00 Partly Cloudy SCT120 78.1 70 76% 80 30.04 1016.3
01 02:53 SW 6 10.00 Fair CLR 78.1 70 76% 80 30.04 1016.4
01 01:53 S 3 10.00 Fair CLR 77 71.1 82 75 82% 79 30.05 1016.6
01 00:53 S 5 10.00 Fair CLR 78.1 70 76% 80 30.05 1016.5
31 23:53 SW 12 10.00 Fair CLR 80.1 70 71% 83 30.02 1015.7
31 22:53 S 8 10.00 Fair CLR 79 70 74% 82 30.05 1016.8
31 21:53 Calm 10.00 Fair CLR 75.9 70 82% 77 30.08 1017.7
31 20:53 Calm 10.00 Fair CLR 77 70 79% 79 30.07 1017.4
31 19:53 Calm 10.00 Fair CLR 82 70 89.1 82 67% 86 30.06 1017.2
31 18:53 SW 5 10.00 Fair CLR 84 69.1 61% 88 30.06 1017.0
31 17:53 SW 6 10.00 Fair CLR 84.9 69.1 59% 89 30.05 1016.7
31 16:53 SW 9 10.00 A Few Clouds FEW120 84.9 69.1 59% 89 30.06 1016.9
31 15:53 SW 6 10.00 A Few Clouds FEW110 84.9 70 61% 89 30.08 1017.6
31 14:53 W 10 10.00 A Few Clouds FEW045 86 70 59% 91 30.09 1018.1
31 13:53 W 13 10.00 Fair CLR 89.1 70 89.1 73.9 53% 94 30.11 1018.5
31 12:53 W 10 10.00 A Few Clouds FEW060 86 69.1 57% 90 30.11 1018.9
31 11:53 W 8 10.00 Fair CLR 84.9 70 61% 89 30.12 1019.1
31 10:53 W 5 10.00 Fair CLR 82.9 69.1 63% 87 30.11 1018.8
Date Time (edt) Wind (mph) Vis. (mi.) Weather Sky Cond. Air Dwpt Max. Min. Relative Humidity Wind Chill (°F) Heat Index (°F) altimeter (in) sea level (mb) 1 hr 3 hr 6 hr
6 hour
Temperature (ºF) Pressure Precipitation (in)